Index of /20260504/WXO-DD/model_gdps/15km/12/156
Name Last modified Size Description
Parent Directory -
20260504T12Z_MSC_GDPS_AbsoluteVorticity_IsbL-0200_LatLon0.15_PT156H.grib2 2026-05-04 16:51 1.2M
20260504T12Z_MSC_GDPS_AbsoluteVorticity_IsbL-0250_LatLon0.15_PT156H.grib2 2026-05-04 16:51 1.3M
20260504T12Z_MSC_GDPS_AbsoluteVorticity_IsbL-0500_LatLon0.15_PT156H.grib2 2026-05-04 16:51 1.2M
20260504T12Z_MSC_GDPS_AbsoluteVorticity_IsbL-0700_LatLon0.15_PT156H.grib2 2026-05-04 16:51 1.3M
20260504T12Z_MSC_GDPS_AbsoluteVorticity_IsbL-0850_LatLon0.15_PT156H.grib2 2026-05-04 16:51 1.6M
20260504T12Z_MSC_GDPS_AirTemp-Max_AGL-2m_LatLon0.15_PT156H.grib2 2026-05-04 16:51 743K
20260504T12Z_MSC_GDPS_AirTemp-Min_AGL-2m_LatLon0.15_PT156H.grib2 2026-05-04 16:51 795K
20260504T12Z_MSC_GDPS_AirTemp_AGL-120m_LatLon0.15_PT156H.grib2 2026-05-04 16:51 908K
20260504T12Z_MSC_GDPS_AirTemp_AGL-2m_LatLon0.15_PT156H.grib2 2026-05-04 16:51 1.0M
20260504T12Z_MSC_GDPS_AirTemp_AGL-40m_LatLon0.15_PT156H.grib2 2026-05-04 16:51 812K
20260504T12Z_MSC_GDPS_AirTemp_AGL-80m_LatLon0.15_PT156H.grib2 2026-05-04 16:51 800K
20260504T12Z_MSC_GDPS_AirTemp_IsbL-0001_LatLon0.15_PT156H.grib2 2026-05-04 16:51 661K
20260504T12Z_MSC_GDPS_AirTemp_IsbL-0005_LatLon0.15_PT156H.grib2 2026-05-04 16:51 696K
20260504T12Z_MSC_GDPS_AirTemp_IsbL-0010_LatLon0.15_PT156H.grib2 2026-05-04 16:51 697K
20260504T12Z_MSC_GDPS_AirTemp_IsbL-0020_LatLon0.15_PT156H.grib2 2026-05-04 16:51 786K
20260504T12Z_MSC_GDPS_AirTemp_IsbL-0030_LatLon0.15_PT156H.grib2 2026-05-04 16:51 839K
20260504T12Z_MSC_GDPS_AirTemp_IsbL-0050_LatLon0.15_PT156H.grib2 2026-05-04 16:51 884K
20260504T12Z_MSC_GDPS_AirTemp_IsbL-0100_LatLon0.15_PT156H.grib2 2026-05-04 16:51 972K
20260504T12Z_MSC_GDPS_AirTemp_IsbL-0150_LatLon0.15_PT156H.grib2 2026-05-04 16:51 1.0M
20260504T12Z_MSC_GDPS_AirTemp_IsbL-0175_LatLon0.15_PT156H.grib2 2026-05-04 16:51 973K
20260504T12Z_MSC_GDPS_AirTemp_IsbL-0200_LatLon0.15_PT156H.grib2 2026-05-04 16:51 1.0M
20260504T12Z_MSC_GDPS_AirTemp_IsbL-0225_LatLon0.15_PT156H.grib2 2026-05-04 16:51 972K
20260504T12Z_MSC_GDPS_AirTemp_IsbL-0250_LatLon0.15_PT156H.grib2 2026-05-04 16:51 1.0M
20260504T12Z_MSC_GDPS_AirTemp_IsbL-0275_LatLon0.15_PT156H.grib2 2026-05-04 16:51 1.0M
20260504T12Z_MSC_GDPS_AirTemp_IsbL-0300_LatLon0.15_PT156H.grib2 2026-05-04 16:51 1.0M
20260504T12Z_MSC_GDPS_AirTemp_IsbL-0350_LatLon0.15_PT156H.grib2 2026-05-04 16:51 937K
20260504T12Z_MSC_GDPS_AirTemp_IsbL-0400_LatLon0.15_PT156H.grib2 2026-05-04 16:51 950K
20260504T12Z_MSC_GDPS_AirTemp_IsbL-0450_LatLon0.15_PT156H.grib2 2026-05-04 16:51 972K
20260504T12Z_MSC_GDPS_AirTemp_IsbL-0500_LatLon0.15_PT156H.grib2 2026-05-04 16:51 1.0M
20260504T12Z_MSC_GDPS_AirTemp_IsbL-0550_LatLon0.15_PT156H.grib2 2026-05-04 16:51 1.0M
20260504T12Z_MSC_GDPS_AirTemp_IsbL-0600_LatLon0.15_PT156H.grib2 2026-05-04 16:51 897K
20260504T12Z_MSC_GDPS_AirTemp_IsbL-0650_LatLon0.15_PT156H.grib2 2026-05-04 16:51 923K
20260504T12Z_MSC_GDPS_AirTemp_IsbL-0700_LatLon0.15_PT156H.grib2 2026-05-04 16:51 957K
20260504T12Z_MSC_GDPS_AirTemp_IsbL-0750_LatLon0.15_PT156H.grib2 2026-05-04 16:51 1.0M
20260504T12Z_MSC_GDPS_AirTemp_IsbL-0800_LatLon0.15_PT156H.grib2 2026-05-04 16:51 1.1M
20260504T12Z_MSC_GDPS_AirTemp_IsbL-0850_LatLon0.15_PT156H.grib2 2026-05-04 16:51 1.1M
20260504T12Z_MSC_GDPS_AirTemp_IsbL-0875_LatLon0.15_PT156H.grib2 2026-05-04 16:51 1.1M
20260504T12Z_MSC_GDPS_AirTemp_IsbL-0900_LatLon0.15_PT156H.grib2 2026-05-04 16:51 1.1M
20260504T12Z_MSC_GDPS_AirTemp_IsbL-0925_LatLon0.15_PT156H.grib2 2026-05-04 16:51 1.1M
20260504T12Z_MSC_GDPS_AirTemp_IsbL-0950_LatLon0.15_PT156H.grib2 2026-05-04 16:51 1.1M
20260504T12Z_MSC_GDPS_AirTemp_IsbL-0970_LatLon0.15_PT156H.grib2 2026-05-04 16:51 1.1M
20260504T12Z_MSC_GDPS_AirTemp_IsbL-0985_LatLon0.15_PT156H.grib2 2026-05-04 16:51 1.1M
20260504T12Z_MSC_GDPS_AirTemp_IsbL-1000_LatLon0.15_PT156H.grib2 2026-05-04 16:51 1.1M
20260504T12Z_MSC_GDPS_AirTemp_IsbL-1015_LatLon0.15_PT156H.grib2 2026-05-04 16:51 1.1M
20260504T12Z_MSC_GDPS_Albedo_Sfc_LatLon0.15_PT156H.grib2 2026-05-04 16:51 246K
20260504T12Z_MSC_GDPS_CAPE_Sfc_LatLon0.15_PT156H.grib2 2026-05-04 16:51 3.7M
20260504T12Z_MSC_GDPS_CIN_Sfc_LatLon0.15_PT156H.grib2 2026-05-04 16:51 2.7M
20260504T12Z_MSC_GDPS_CloudWater_EAtm_LatLon0.15_PT156H.grib2 2026-05-04 16:51 540K
20260504T12Z_MSC_GDPS_ConvectivePrecip-Accum_Sfc_LatLon0.15_PT156H.grib2 2026-05-04 16:51 3.7M
20260504T12Z_MSC_GDPS_DewPointDepression_AGL-2m_LatLon0.15_PT156H.grib2 2026-05-04 16:51 759K
20260504T12Z_MSC_GDPS_DewPointDepression_IsbL-0010_LatLon0.15_PT156H.grib2 2026-05-04 16:51 88K
20260504T12Z_MSC_GDPS_DewPointDepression_IsbL-0020_LatLon0.15_PT156H.grib2 2026-05-04 16:51 83K
20260504T12Z_MSC_GDPS_DewPointDepression_IsbL-0030_LatLon0.15_PT156H.grib2 2026-05-04 16:51 101K
20260504T12Z_MSC_GDPS_DewPointDepression_IsbL-0050_LatLon0.15_PT156H.grib2 2026-05-04 16:51 383K
20260504T12Z_MSC_GDPS_DewPointDepression_IsbL-0100_LatLon0.15_PT156H.grib2 2026-05-04 16:51 392K
20260504T12Z_MSC_GDPS_DewPointDepression_IsbL-0150_LatLon0.15_PT156H.grib2 2026-05-04 16:51 497K
20260504T12Z_MSC_GDPS_DewPointDepression_IsbL-0175_LatLon0.15_PT156H.grib2 2026-05-04 16:51 595K
20260504T12Z_MSC_GDPS_DewPointDepression_IsbL-0200_LatLon0.15_PT156H.grib2 2026-05-04 16:51 697K
20260504T12Z_MSC_GDPS_DewPointDepression_IsbL-0225_LatLon0.15_PT156H.grib2 2026-05-04 16:51 781K
20260504T12Z_MSC_GDPS_DewPointDepression_IsbL-0250_LatLon0.15_PT156H.grib2 2026-05-04 16:51 864K
20260504T12Z_MSC_GDPS_DewPointDepression_IsbL-0275_LatLon0.15_PT156H.grib2 2026-05-04 16:51 886K
20260504T12Z_MSC_GDPS_DewPointDepression_IsbL-0300_LatLon0.15_PT156H.grib2 2026-05-04 16:51 930K
20260504T12Z_MSC_GDPS_DewPointDepression_IsbL-0350_LatLon0.15_PT156H.grib2 2026-05-04 16:51 953K
20260504T12Z_MSC_GDPS_DewPointDepression_IsbL-0400_LatLon0.15_PT156H.grib2 2026-05-04 16:51 970K
20260504T12Z_MSC_GDPS_DewPointDepression_IsbL-0450_LatLon0.15_PT156H.grib2 2026-05-04 16:51 1.0M
20260504T12Z_MSC_GDPS_DewPointDepression_IsbL-0500_LatLon0.15_PT156H.grib2 2026-05-04 16:51 1.0M
20260504T12Z_MSC_GDPS_DewPointDepression_IsbL-0550_LatLon0.15_PT156H.grib2 2026-05-04 16:51 1.0M
20260504T12Z_MSC_GDPS_DewPointDepression_IsbL-0600_LatLon0.15_PT156H.grib2 2026-05-04 16:51 1.0M
20260504T12Z_MSC_GDPS_DewPointDepression_IsbL-0650_LatLon0.15_PT156H.grib2 2026-05-04 16:51 1.1M
20260504T12Z_MSC_GDPS_DewPointDepression_IsbL-0700_LatLon0.15_PT156H.grib2 2026-05-04 16:51 1.1M
20260504T12Z_MSC_GDPS_DewPointDepression_IsbL-0750_LatLon0.15_PT156H.grib2 2026-05-04 16:51 1.1M
20260504T12Z_MSC_GDPS_DewPointDepression_IsbL-0800_LatLon0.15_PT156H.grib2 2026-05-04 16:51 1.2M
20260504T12Z_MSC_GDPS_DewPointDepression_IsbL-0850_LatLon0.15_PT156H.grib2 2026-05-04 16:51 1.1M
20260504T12Z_MSC_GDPS_DewPointDepression_IsbL-0875_LatLon0.15_PT156H.grib2 2026-05-04 16:51 1.1M
20260504T12Z_MSC_GDPS_DewPointDepression_IsbL-0900_LatLon0.15_PT156H.grib2 2026-05-04 16:51 1.1M
20260504T12Z_MSC_GDPS_DewPointDepression_IsbL-0925_LatLon0.15_PT156H.grib2 2026-05-04 16:51 1.0M
20260504T12Z_MSC_GDPS_DewPointDepression_IsbL-0950_LatLon0.15_PT156H.grib2 2026-05-04 16:51 1.0M
20260504T12Z_MSC_GDPS_DewPointDepression_IsbL-0970_LatLon0.15_PT156H.grib2 2026-05-04 16:51 1.0M
20260504T12Z_MSC_GDPS_DewPointDepression_IsbL-0985_LatLon0.15_PT156H.grib2 2026-05-04 16:51 1.0M
20260504T12Z_MSC_GDPS_DewPointDepression_IsbL-1000_LatLon0.15_PT156H.grib2 2026-05-04 16:51 965K
20260504T12Z_MSC_GDPS_DewPointDepression_IsbL-1015_LatLon0.15_PT156H.grib2 2026-05-04 16:51 903K
20260504T12Z_MSC_GDPS_DewPoint_AGL-2m_LatLon0.15_PT156H.grib2 2026-05-04 16:51 601K
20260504T12Z_MSC_GDPS_DownwardLongwaveRadiationFlux-Accum_Sfc_LatLon0.15_PT156H.grib2 2026-05-04 16:51 628K
20260504T12Z_MSC_GDPS_DownwardShortwaveRadiationFlux-Accum_NTAtm_LatLon0.15_PT156H.grib2 2026-05-04 16:51 225K
20260504T12Z_MSC_GDPS_DownwardShortwaveRadiationFlux-Accum_Sfc_LatLon0.15_PT156H.grib2 2026-05-04 16:51 807K
20260504T12Z_MSC_GDPS_FreezingRain-Accum12h_Sfc_LatLon0.15_PT156H.grib2 2026-05-04 16:51 88K
20260504T12Z_MSC_GDPS_FreezingRain-Accum24h_Sfc_LatLon0.15_PT156H.grib2 2026-05-04 16:51 133K
20260504T12Z_MSC_GDPS_FreezingRain-Accum3h_Sfc_LatLon0.15_PT156H.grib2 2026-05-04 16:51 37K
20260504T12Z_MSC_GDPS_FreezingRain-Accum6h_Sfc_LatLon0.15_PT156H.grib2 2026-05-04 16:51 57K
20260504T12Z_MSC_GDPS_FreezingRain-Accum_Sfc_LatLon0.15_PT156H.grib2 2026-05-04 16:51 425K
20260504T12Z_MSC_GDPS_GeopotentialHeight_IsbL-0001_LatLon0.15_PT156H.grib2 2026-05-04 16:51 455K
20260504T12Z_MSC_GDPS_GeopotentialHeight_IsbL-0005_LatLon0.15_PT156H.grib2 2026-05-04 16:51 490K
20260504T12Z_MSC_GDPS_GeopotentialHeight_IsbL-0010_LatLon0.15_PT156H.grib2 2026-05-04 16:51 475K
20260504T12Z_MSC_GDPS_GeopotentialHeight_IsbL-0020_LatLon0.15_PT156H.grib2 2026-05-04 16:51 410K
20260504T12Z_MSC_GDPS_GeopotentialHeight_IsbL-0030_LatLon0.15_PT156H.grib2 2026-05-04 16:51 416K
20260504T12Z_MSC_GDPS_GeopotentialHeight_IsbL-0050_LatLon0.15_PT156H.grib2 2026-05-04 16:51 577K
20260504T12Z_MSC_GDPS_GeopotentialHeight_IsbL-0100_LatLon0.15_PT156H.grib2 2026-05-04 16:51 622K
20260504T12Z_MSC_GDPS_GeopotentialHeight_IsbL-0150_LatLon0.15_PT156H.grib2 2026-05-04 16:51 641K
20260504T12Z_MSC_GDPS_GeopotentialHeight_IsbL-0175_LatLon0.15_PT156H.grib2 2026-05-04 16:51 645K
20260504T12Z_MSC_GDPS_GeopotentialHeight_IsbL-0200_LatLon0.15_PT156H.grib2 2026-05-04 16:51 648K
20260504T12Z_MSC_GDPS_GeopotentialHeight_IsbL-0225_LatLon0.15_PT156H.grib2 2026-05-04 16:51 650K
20260504T12Z_MSC_GDPS_GeopotentialHeight_IsbL-0250_LatLon0.15_PT156H.grib2 2026-05-04 16:51 650K
20260504T12Z_MSC_GDPS_GeopotentialHeight_IsbL-0275_LatLon0.15_PT156H.grib2 2026-05-04 16:51 646K
20260504T12Z_MSC_GDPS_GeopotentialHeight_IsbL-0300_LatLon0.15_PT156H.grib2 2026-05-04 16:51 637K
20260504T12Z_MSC_GDPS_GeopotentialHeight_IsbL-0350_LatLon0.15_PT156H.grib2 2026-05-04 16:51 634K
20260504T12Z_MSC_GDPS_GeopotentialHeight_IsbL-0400_LatLon0.15_PT156H.grib2 2026-05-04 16:51 626K
20260504T12Z_MSC_GDPS_GeopotentialHeight_IsbL-0450_LatLon0.15_PT156H.grib2 2026-05-04 16:51 616K
20260504T12Z_MSC_GDPS_GeopotentialHeight_IsbL-0500_LatLon0.15_PT156H.grib2 2026-05-04 16:51 534K
20260504T12Z_MSC_GDPS_GeopotentialHeight_IsbL-0550_LatLon0.15_PT156H.grib2 2026-05-04 16:51 530K
20260504T12Z_MSC_GDPS_GeopotentialHeight_IsbL-0600_LatLon0.15_PT156H.grib2 2026-05-04 16:51 525K
20260504T12Z_MSC_GDPS_GeopotentialHeight_IsbL-0650_LatLon0.15_PT156H.grib2 2026-05-04 16:51 692K
20260504T12Z_MSC_GDPS_GeopotentialHeight_IsbL-0700_LatLon0.15_PT156H.grib2 2026-05-04 16:51 686K
20260504T12Z_MSC_GDPS_GeopotentialHeight_IsbL-0750_LatLon0.15_PT156H.grib2 2026-05-04 16:51 697K
20260504T12Z_MSC_GDPS_GeopotentialHeight_IsbL-0800_LatLon0.15_PT156H.grib2 2026-05-04 16:51 706K
20260504T12Z_MSC_GDPS_GeopotentialHeight_IsbL-0850_LatLon0.15_PT156H.grib2 2026-05-04 16:51 716K
20260504T12Z_MSC_GDPS_GeopotentialHeight_IsbL-0875_LatLon0.15_PT156H.grib2 2026-05-04 16:51 722K
20260504T12Z_MSC_GDPS_GeopotentialHeight_IsbL-0900_LatLon0.15_PT156H.grib2 2026-05-04 16:51 724K
20260504T12Z_MSC_GDPS_GeopotentialHeight_IsbL-0925_LatLon0.15_PT156H.grib2 2026-05-04 16:51 736K
20260504T12Z_MSC_GDPS_GeopotentialHeight_IsbL-0950_LatLon0.15_PT156H.grib2 2026-05-04 16:51 742K
20260504T12Z_MSC_GDPS_GeopotentialHeight_IsbL-0970_LatLon0.15_PT156H.grib2 2026-05-04 16:51 754K
20260504T12Z_MSC_GDPS_GeopotentialHeight_IsbL-0985_LatLon0.15_PT156H.grib2 2026-05-04 16:51 769K
20260504T12Z_MSC_GDPS_GeopotentialHeight_IsbL-1000_LatLon0.15_PT156H.grib2 2026-05-04 16:51 789K
20260504T12Z_MSC_GDPS_GeopotentialHeight_IsbL-1015_LatLon0.15_PT156H.grib2 2026-05-04 16:51 811K
20260504T12Z_MSC_GDPS_IcePellets-Accum12h_Sfc_LatLon0.15_PT156H.grib2 2026-05-04 16:51 59K
20260504T12Z_MSC_GDPS_IcePellets-Accum24h_Sfc_LatLon0.15_PT156H.grib2 2026-05-04 16:51 81K
20260504T12Z_MSC_GDPS_IcePellets-Accum3h_Sfc_LatLon0.15_PT156H.grib2 2026-05-04 16:51 30K
20260504T12Z_MSC_GDPS_IcePellets-Accum6h_Sfc_LatLon0.15_PT156H.grib2 2026-05-04 16:51 43K
20260504T12Z_MSC_GDPS_IcePellets-Accum_Sfc_LatLon0.15_PT156H.grib2 2026-05-04 16:51 191K
20260504T12Z_MSC_GDPS_KIndex_Sfc_LatLon0.15_PT156H.grib2 2026-05-04 16:51 6.5M
20260504T12Z_MSC_GDPS_LatentHeatNetFlux_Sfc_LatLon0.15_PT156H.grib2 2026-05-04 16:51 673K
20260504T12Z_MSC_GDPS_LiftedIndex-MU-VT_IsbL-0500_LatLon0.15_PT156H.grib2 2026-05-04 16:51 5.4M
20260504T12Z_MSC_GDPS_NetLongwaveRadiationFlux-Accum_Sfc_LatLon0.15_PT156H.grib2 2026-05-04 16:51 1.1M
20260504T12Z_MSC_GDPS_NetShortwaveRadiationFlux-Accum_Sfc_LatLon0.15_PT156H.grib2 2026-05-04 16:51 1.0M
20260504T12Z_MSC_GDPS_O3MixingRatio_Sfc_LatLon0.15_PT156H.grib2 2026-05-04 17:18 1.9M
20260504T12Z_MSC_GDPS_O3_EAtm_LatLon0.15_PT156H.grib2 2026-05-04 17:18 2.4M
20260504T12Z_MSC_GDPS_PlanetaryBoundaryLayerHeight_Sfc_LatLon0.15_PT156H.grib2 2026-05-04 16:51 2.4M
20260504T12Z_MSC_GDPS_Precip-Accum12h_Sfc_LatLon0.15_PT156H.grib2 2026-05-04 16:51 4.0M
20260504T12Z_MSC_GDPS_Precip-Accum24h_Sfc_LatLon0.15_PT156H.grib2 2026-05-04 16:51 4.6M
20260504T12Z_MSC_GDPS_Precip-Accum3h_Sfc_LatLon0.15_PT156H.grib2 2026-05-04 16:51 3.4M
20260504T12Z_MSC_GDPS_Precip-Accum6h_Sfc_LatLon0.15_PT156H.grib2 2026-05-04 16:51 3.8M
20260504T12Z_MSC_GDPS_Precip-Accum_Sfc_LatLon0.15_PT156H.grib2 2026-05-04 16:51 5.3M
20260504T12Z_MSC_GDPS_PrecipRate_Sfc_LatLon0.15_PT156H.grib2 2026-05-04 16:51 3.1M
20260504T12Z_MSC_GDPS_PrecipType-Instant_Sfc_LatLon0.15_PT156H.grib2 2026-05-04 16:51 1.6M
20260504T12Z_MSC_GDPS_Pressure_MSL_LatLon0.15_PT156H.grib2 2026-05-04 16:51 823K
20260504T12Z_MSC_GDPS_Pressure_Sfc_LatLon0.15_PT156H.grib2 2026-05-04 16:51 1.1M
20260504T12Z_MSC_GDPS_RadiativeTemp_Sfc_LatLon0.15_PT156H.grib2 2026-05-04 16:51 652K
20260504T12Z_MSC_GDPS_Rain-Accum12h_Sfc_LatLon0.15_PT156H.grib2 2026-05-04 16:51 2.8M
20260504T12Z_MSC_GDPS_Rain-Accum24h_Sfc_LatLon0.15_PT156H.grib2 2026-05-04 16:51 3.2M
20260504T12Z_MSC_GDPS_Rain-Accum3h_Sfc_LatLon0.15_PT156H.grib2 2026-05-04 16:51 1.8M
20260504T12Z_MSC_GDPS_Rain-Accum6h_Sfc_LatLon0.15_PT156H.grib2 2026-05-04 16:51 2.5M
20260504T12Z_MSC_GDPS_Rain-Accum_Sfc_LatLon0.15_PT156H.grib2 2026-05-04 16:51 4.2M
20260504T12Z_MSC_GDPS_RelativeHumidity_AGL-2m_LatLon0.15_PT156H.grib2 2026-05-04 16:51 1.0M
20260504T12Z_MSC_GDPS_RelativeHumidity_IsbL-0010_LatLon0.15_PT156H.grib2 2026-05-04 16:51 139K
20260504T12Z_MSC_GDPS_RelativeHumidity_IsbL-0020_LatLon0.15_PT156H.grib2 2026-05-04 16:51 166K
20260504T12Z_MSC_GDPS_RelativeHumidity_IsbL-0030_LatLon0.15_PT156H.grib2 2026-05-04 16:51 188K
20260504T12Z_MSC_GDPS_RelativeHumidity_IsbL-0050_LatLon0.15_PT156H.grib2 2026-05-04 16:51 337K
20260504T12Z_MSC_GDPS_RelativeHumidity_IsbL-0100_LatLon0.15_PT156H.grib2 2026-05-04 16:51 499K
20260504T12Z_MSC_GDPS_RelativeHumidity_IsbL-0150_LatLon0.15_PT156H.grib2 2026-05-04 16:51 670K
20260504T12Z_MSC_GDPS_RelativeHumidity_IsbL-0175_LatLon0.15_PT156H.grib2 2026-05-04 16:51 809K
20260504T12Z_MSC_GDPS_RelativeHumidity_IsbL-0200_LatLon0.15_PT156H.grib2 2026-05-04 16:51 723K
20260504T12Z_MSC_GDPS_RelativeHumidity_IsbL-0225_LatLon0.15_PT156H.grib2 2026-05-04 16:51 802K
20260504T12Z_MSC_GDPS_RelativeHumidity_IsbL-0250_LatLon0.15_PT156H.grib2 2026-05-04 16:51 866K
20260504T12Z_MSC_GDPS_RelativeHumidity_IsbL-0275_LatLon0.15_PT156H.grib2 2026-05-04 16:51 879K
20260504T12Z_MSC_GDPS_RelativeHumidity_IsbL-0300_LatLon0.15_PT156H.grib2 2026-05-04 16:51 918K
20260504T12Z_MSC_GDPS_RelativeHumidity_IsbL-0350_LatLon0.15_PT156H.grib2 2026-05-04 16:51 934K
20260504T12Z_MSC_GDPS_RelativeHumidity_IsbL-0400_LatLon0.15_PT156H.grib2 2026-05-04 16:51 953K
20260504T12Z_MSC_GDPS_RelativeHumidity_IsbL-0450_LatLon0.15_PT156H.grib2 2026-05-04 16:51 1.0M
20260504T12Z_MSC_GDPS_RelativeHumidity_IsbL-0500_LatLon0.15_PT156H.grib2 2026-05-04 16:51 1.0M
20260504T12Z_MSC_GDPS_RelativeHumidity_IsbL-0550_LatLon0.15_PT156H.grib2 2026-05-04 16:51 1.0M
20260504T12Z_MSC_GDPS_RelativeHumidity_IsbL-0600_LatLon0.15_PT156H.grib2 2026-05-04 16:51 1.1M
20260504T12Z_MSC_GDPS_RelativeHumidity_IsbL-0650_LatLon0.15_PT156H.grib2 2026-05-04 16:51 1.1M
20260504T12Z_MSC_GDPS_RelativeHumidity_IsbL-0700_LatLon0.15_PT156H.grib2 2026-05-04 16:51 1.1M
20260504T12Z_MSC_GDPS_RelativeHumidity_IsbL-0750_LatLon0.15_PT156H.grib2 2026-05-04 16:51 1.1M
20260504T12Z_MSC_GDPS_RelativeHumidity_IsbL-0800_LatLon0.15_PT156H.grib2 2026-05-04 16:51 1.2M
20260504T12Z_MSC_GDPS_RelativeHumidity_IsbL-0850_LatLon0.15_PT156H.grib2 2026-05-04 16:51 1.2M
20260504T12Z_MSC_GDPS_RelativeHumidity_IsbL-0875_LatLon0.15_PT156H.grib2 2026-05-04 16:51 1.2M
20260504T12Z_MSC_GDPS_RelativeHumidity_IsbL-0900_LatLon0.15_PT156H.grib2 2026-05-04 16:51 1.2M
20260504T12Z_MSC_GDPS_RelativeHumidity_IsbL-0925_LatLon0.15_PT156H.grib2 2026-05-04 16:51 1.2M
20260504T12Z_MSC_GDPS_RelativeHumidity_IsbL-0950_LatLon0.15_PT156H.grib2 2026-05-04 16:51 1.2M
20260504T12Z_MSC_GDPS_RelativeHumidity_IsbL-0970_LatLon0.15_PT156H.grib2 2026-05-04 16:51 1.2M
20260504T12Z_MSC_GDPS_RelativeHumidity_IsbL-0985_LatLon0.15_PT156H.grib2 2026-05-04 16:51 1.1M
20260504T12Z_MSC_GDPS_RelativeHumidity_IsbL-1000_LatLon0.15_PT156H.grib2 2026-05-04 16:51 1.1M
20260504T12Z_MSC_GDPS_RelativeHumidity_IsbL-1015_LatLon0.15_PT156H.grib2 2026-05-04 16:51 1.0M
20260504T12Z_MSC_GDPS_RelativeVorticity_IsbL-0200_LatLon0.15_PT156H.grib2 2026-05-04 16:51 1.2M
20260504T12Z_MSC_GDPS_RelativeVorticity_IsbL-0250_LatLon0.15_PT156H.grib2 2026-05-04 16:51 1.3M
20260504T12Z_MSC_GDPS_RelativeVorticity_IsbL-0500_LatLon0.15_PT156H.grib2 2026-05-04 16:51 1.2M
20260504T12Z_MSC_GDPS_RelativeVorticity_IsbL-0700_LatLon0.15_PT156H.grib2 2026-05-04 16:51 1.3M
20260504T12Z_MSC_GDPS_RelativeVorticity_IsbL-0850_LatLon0.15_PT156H.grib2 2026-05-04 16:51 1.6M
20260504T12Z_MSC_GDPS_Runoff-Accum_Sfc_LatLon0.15_PT156H.grib2 2026-05-04 16:51 116K
20260504T12Z_MSC_GDPS_SensibleHeatNetFlux_Sfc_LatLon0.15_PT156H.grib2 2026-05-04 16:51 448K
20260504T12Z_MSC_GDPS_ShowalterIndex_IsbL-0500_LatLon0.15_PT156H.grib2 2026-05-04 16:51 6.2M
20260504T12Z_MSC_GDPS_Snow-Accum12h_Sfc_LatLon0.15_PT156H.grib2 2026-05-04 16:51 1.5M
20260504T12Z_MSC_GDPS_Snow-Accum24h_Sfc_LatLon0.15_PT156H.grib2 2026-05-04 16:51 1.6M
20260504T12Z_MSC_GDPS_Snow-Accum3h_Sfc_LatLon0.15_PT156H.grib2 2026-05-04 16:51 1.0M
20260504T12Z_MSC_GDPS_Snow-Accum6h_Sfc_LatLon0.15_PT156H.grib2 2026-05-04 16:51 1.4M
20260504T12Z_MSC_GDPS_Snow-Accum_Sfc_LatLon0.15_PT156H.grib2 2026-05-04 16:51 2.1M
20260504T12Z_MSC_GDPS_SnowDensity_Sfc_LatLon0.15_PT156H.grib2 2026-05-04 16:51 260K
20260504T12Z_MSC_GDPS_SnowDepth_Sfc_LatLon0.15_PT156H.grib2 2026-05-04 16:51 1.7M
20260504T12Z_MSC_GDPS_SoilTemp_DBS-0to10cm_LatLon0.15_PT156H.grib2 2026-05-04 16:51 516K
20260504T12Z_MSC_GDPS_SoilTemp_Sfc_LatLon0.15_PT156H.grib2 2026-05-04 16:51 578K
20260504T12Z_MSC_GDPS_SoilVolumetricIceContent_Sfc_LatLon0.15_PT156H.grib2 2026-05-04 16:51 176K
20260504T12Z_MSC_GDPS_SoilVolumetricWaterContent_DBS-0to10cm_LatLon0.15_PT156H.grib2 2026-05-04 16:51 602K
20260504T12Z_MSC_GDPS_SoilVolumetricWaterContent_DBS-0to1cm_LatLon0.15_PT156H.grib2 2026-05-04 16:51 654K
20260504T12Z_MSC_GDPS_SpecificHumidity_AGL-120m_LatLon0.15_PT156H.grib2 2026-05-04 16:51 1.1M
20260504T12Z_MSC_GDPS_SpecificHumidity_AGL-2m_LatLon0.15_PT156H.grib2 2026-05-04 16:51 1.2M
20260504T12Z_MSC_GDPS_SpecificHumidity_AGL-40m_LatLon0.15_PT156H.grib2 2026-05-04 16:51 1.1M
20260504T12Z_MSC_GDPS_SpecificHumidity_AGL-80m_LatLon0.15_PT156H.grib2 2026-05-04 16:51 1.1M
20260504T12Z_MSC_GDPS_SpecificHumidity_IsbL-0001_LatLon0.15_PT156H.grib2 2026-05-04 16:51 1.2M
20260504T12Z_MSC_GDPS_SpecificHumidity_IsbL-0005_LatLon0.15_PT156H.grib2 2026-05-04 16:51 1.1M
20260504T12Z_MSC_GDPS_SpecificHumidity_IsbL-0010_LatLon0.15_PT156H.grib2 2026-05-04 16:51 1.2M
20260504T12Z_MSC_GDPS_SpecificHumidity_IsbL-0020_LatLon0.15_PT156H.grib2 2026-05-04 16:51 1.2M
20260504T12Z_MSC_GDPS_SpecificHumidity_IsbL-0030_LatLon0.15_PT156H.grib2 2026-05-04 16:51 1.2M
20260504T12Z_MSC_GDPS_SpecificHumidity_IsbL-0050_LatLon0.15_PT156H.grib2 2026-05-04 16:51 1.5M
20260504T12Z_MSC_GDPS_SpecificHumidity_IsbL-0100_LatLon0.15_PT156H.grib2 2026-05-04 16:51 1.2M
20260504T12Z_MSC_GDPS_SpecificHumidity_IsbL-0150_LatLon0.15_PT156H.grib2 2026-05-04 16:51 1.3M
20260504T12Z_MSC_GDPS_SpecificHumidity_IsbL-0175_LatLon0.15_PT156H.grib2 2026-05-04 16:51 1.3M
20260504T12Z_MSC_GDPS_SpecificHumidity_IsbL-0200_LatLon0.15_PT156H.grib2 2026-05-04 16:51 1.3M
20260504T12Z_MSC_GDPS_SpecificHumidity_IsbL-0225_LatLon0.15_PT156H.grib2 2026-05-04 16:51 1.3M
20260504T12Z_MSC_GDPS_SpecificHumidity_IsbL-0250_LatLon0.15_PT156H.grib2 2026-05-04 16:51 1.2M
20260504T12Z_MSC_GDPS_SpecificHumidity_IsbL-0275_LatLon0.15_PT156H.grib2 2026-05-04 16:51 1.3M
20260504T12Z_MSC_GDPS_SpecificHumidity_IsbL-0300_LatLon0.15_PT156H.grib2 2026-05-04 16:51 1.2M
20260504T12Z_MSC_GDPS_SpecificHumidity_IsbL-0350_LatLon0.15_PT156H.grib2 2026-05-04 16:51 1.2M
20260504T12Z_MSC_GDPS_SpecificHumidity_IsbL-0400_LatLon0.15_PT156H.grib2 2026-05-04 16:51 1.4M
20260504T12Z_MSC_GDPS_SpecificHumidity_IsbL-0450_LatLon0.15_PT156H.grib2 2026-05-04 16:51 1.3M
20260504T12Z_MSC_GDPS_SpecificHumidity_IsbL-0500_LatLon0.15_PT156H.grib2 2026-05-04 16:51 1.4M
20260504T12Z_MSC_GDPS_SpecificHumidity_IsbL-0550_LatLon0.15_PT156H.grib2 2026-05-04 16:51 1.6M
20260504T12Z_MSC_GDPS_SpecificHumidity_IsbL-0600_LatLon0.15_PT156H.grib2 2026-05-04 16:51 1.4M
20260504T12Z_MSC_GDPS_SpecificHumidity_IsbL-0650_LatLon0.15_PT156H.grib2 2026-05-04 16:51 1.5M
20260504T12Z_MSC_GDPS_SpecificHumidity_IsbL-0700_LatLon0.15_PT156H.grib2 2026-05-04 16:51 1.6M
20260504T12Z_MSC_GDPS_SpecificHumidity_IsbL-0750_LatLon0.15_PT156H.grib2 2026-05-04 16:51 1.7M
20260504T12Z_MSC_GDPS_SpecificHumidity_IsbL-0800_LatLon0.15_PT156H.grib2 2026-05-04 16:51 1.9M
20260504T12Z_MSC_GDPS_SpecificHumidity_IsbL-0850_LatLon0.15_PT156H.grib2 2026-05-04 16:51 2.0M
20260504T12Z_MSC_GDPS_SpecificHumidity_IsbL-0875_LatLon0.15_PT156H.grib2 2026-05-04 16:51 2.0M
20260504T12Z_MSC_GDPS_SpecificHumidity_IsbL-0900_LatLon0.15_PT156H.grib2 2026-05-04 16:51 1.9M
20260504T12Z_MSC_GDPS_SpecificHumidity_IsbL-0925_LatLon0.15_PT156H.grib2 2026-05-04 16:51 1.6M
20260504T12Z_MSC_GDPS_SpecificHumidity_IsbL-0950_LatLon0.15_PT156H.grib2 2026-05-04 16:51 1.6M
20260504T12Z_MSC_GDPS_SpecificHumidity_IsbL-0970_LatLon0.15_PT156H.grib2 2026-05-04 16:51 1.5M
20260504T12Z_MSC_GDPS_SpecificHumidity_IsbL-0985_LatLon0.15_PT156H.grib2 2026-05-04 16:51 1.5M
20260504T12Z_MSC_GDPS_SpecificHumidity_IsbL-1000_LatLon0.15_PT156H.grib2 2026-05-04 16:51 1.5M
20260504T12Z_MSC_GDPS_SpecificHumidity_IsbL-1015_LatLon0.15_PT156H.grib2 2026-05-04 16:51 1.5M
20260504T12Z_MSC_GDPS_SpecificHumidity_Sfc_LatLon0.15_PT156H.grib2 2026-05-04 16:51 640K
20260504T12Z_MSC_GDPS_Thickness_IsbL-0850to0700_LatLon0.15_PT156H.grib2 2026-05-04 16:51 475K
20260504T12Z_MSC_GDPS_Thickness_IsbL-1000to0500_LatLon0.15_PT156H.grib2 2026-05-04 16:51 381K
20260504T12Z_MSC_GDPS_Thickness_IsbL-1000to0850_LatLon0.15_PT156H.grib2 2026-05-04 16:51 492K
20260504T12Z_MSC_GDPS_TotalCloudCover_Sfc_LatLon0.15_PT156H.grib2 2026-05-04 16:51 810K
20260504T12Z_MSC_GDPS_TotalTotalsIndex_Sfc_LatLon0.15_PT156H.grib2 2026-05-04 16:51 6.2M
20260504T12Z_MSC_GDPS_UVIndex-ClearSky_Sfc_LatLon0.15_PT156H.grib2 2026-05-04 17:18 1.0M
20260504T12Z_MSC_GDPS_UVIndex_Sfc_LatLon0.15_PT156H.grib2 2026-05-04 17:18 1.5M
20260504T12Z_MSC_GDPS_UpwardLongwaveRadiationFlux_NTAtm_LatLon0.15_PT156H.grib2 2026-05-04 16:51 832K
20260504T12Z_MSC_GDPS_VerticalVelocity_IsbL-0200_LatLon0.15_PT156H.grib2 2026-05-04 16:51 1.1M
20260504T12Z_MSC_GDPS_VerticalVelocity_IsbL-0250_LatLon0.15_PT156H.grib2 2026-05-04 16:51 1.0M
20260504T12Z_MSC_GDPS_VerticalVelocity_IsbL-0500_LatLon0.15_PT156H.grib2 2026-05-04 16:51 1.3M
20260504T12Z_MSC_GDPS_VerticalVelocity_IsbL-0600_LatLon0.15_PT156H.grib2 2026-05-04 16:51 1.1M
20260504T12Z_MSC_GDPS_VerticalVelocity_IsbL-0700_LatLon0.15_PT156H.grib2 2026-05-04 16:51 1.4M
20260504T12Z_MSC_GDPS_VerticalVelocity_IsbL-0850_LatLon0.15_PT156H.grib2 2026-05-04 16:51 1.6M
20260504T12Z_MSC_GDPS_WindChill_Sfc_LatLon0.15_PT156H.grib2 2026-05-04 16:51 5.3M
20260504T12Z_MSC_GDPS_WindDir_AGL-10m_LatLon0.15_PT156H.grib2 2026-05-04 16:51 1.3M
20260504T12Z_MSC_GDPS_WindDir_AGL-120m_LatLon0.15_PT156H.grib2 2026-05-04 16:51 1.3M
20260504T12Z_MSC_GDPS_WindDir_AGL-40m_LatLon0.15_PT156H.grib2 2026-05-04 16:51 1.4M
20260504T12Z_MSC_GDPS_WindDir_AGL-80m_LatLon0.15_PT156H.grib2 2026-05-04 16:51 1.3M
20260504T12Z_MSC_GDPS_WindDir_IsbL-0001_LatLon0.15_PT156H.grib2 2026-05-04 16:51 659K
20260504T12Z_MSC_GDPS_WindDir_IsbL-0005_LatLon0.15_PT156H.grib2 2026-05-04 16:51 798K
20260504T12Z_MSC_GDPS_WindDir_IsbL-0010_LatLon0.15_PT156H.grib2 2026-05-04 16:51 826K
20260504T12Z_MSC_GDPS_WindDir_IsbL-0020_LatLon0.15_PT156H.grib2 2026-05-04 16:51 923K
20260504T12Z_MSC_GDPS_WindDir_IsbL-0030_LatLon0.15_PT156H.grib2 2026-05-04 16:51 939K
20260504T12Z_MSC_GDPS_WindDir_IsbL-0050_LatLon0.15_PT156H.grib2 2026-05-04 16:51 933K
20260504T12Z_MSC_GDPS_WindDir_IsbL-0100_LatLon0.15_PT156H.grib2 2026-05-04 16:51 1.0M
20260504T12Z_MSC_GDPS_WindDir_IsbL-0150_LatLon0.15_PT156H.grib2 2026-05-04 16:51 1.0M
20260504T12Z_MSC_GDPS_WindDir_IsbL-0175_LatLon0.15_PT156H.grib2 2026-05-04 16:51 1.0M
20260504T12Z_MSC_GDPS_WindDir_IsbL-0200_LatLon0.15_PT156H.grib2 2026-05-04 16:51 1.1M
20260504T12Z_MSC_GDPS_WindDir_IsbL-0225_LatLon0.15_PT156H.grib2 2026-05-04 16:51 1.1M
20260504T12Z_MSC_GDPS_WindDir_IsbL-0250_LatLon0.15_PT156H.grib2 2026-05-04 16:51 1.1M
20260504T12Z_MSC_GDPS_WindDir_IsbL-0275_LatLon0.15_PT156H.grib2 2026-05-04 16:51 1.2M
20260504T12Z_MSC_GDPS_WindDir_IsbL-0300_LatLon0.15_PT156H.grib2 2026-05-04 16:51 1.2M
20260504T12Z_MSC_GDPS_WindDir_IsbL-0350_LatLon0.15_PT156H.grib2 2026-05-04 16:51 1.2M
20260504T12Z_MSC_GDPS_WindDir_IsbL-0400_LatLon0.15_PT156H.grib2 2026-05-04 16:51 1.3M
20260504T12Z_MSC_GDPS_WindDir_IsbL-0450_LatLon0.15_PT156H.grib2 2026-05-04 16:51 1.3M
20260504T12Z_MSC_GDPS_WindDir_IsbL-0500_LatLon0.15_PT156H.grib2 2026-05-04 16:51 1.4M
20260504T12Z_MSC_GDPS_WindDir_IsbL-0550_LatLon0.15_PT156H.grib2 2026-05-04 16:51 1.4M
20260504T12Z_MSC_GDPS_WindDir_IsbL-0600_LatLon0.15_PT156H.grib2 2026-05-04 16:51 1.5M
20260504T12Z_MSC_GDPS_WindDir_IsbL-0650_LatLon0.15_PT156H.grib2 2026-05-04 16:51 1.5M
20260504T12Z_MSC_GDPS_WindDir_IsbL-0700_LatLon0.15_PT156H.grib2 2026-05-04 16:51 1.6M
20260504T12Z_MSC_GDPS_WindDir_IsbL-0750_LatLon0.15_PT156H.grib2 2026-05-04 16:51 1.7M
20260504T12Z_MSC_GDPS_WindDir_IsbL-0800_LatLon0.15_PT156H.grib2 2026-05-04 16:51 1.8M
20260504T12Z_MSC_GDPS_WindDir_IsbL-0850_LatLon0.15_PT156H.grib2 2026-05-04 16:51 1.9M
20260504T12Z_MSC_GDPS_WindDir_IsbL-0875_LatLon0.15_PT156H.grib2 2026-05-04 16:51 1.9M
20260504T12Z_MSC_GDPS_WindDir_IsbL-0900_LatLon0.15_PT156H.grib2 2026-05-04 16:51 1.9M
20260504T12Z_MSC_GDPS_WindDir_IsbL-0925_LatLon0.15_PT156H.grib2 2026-05-04 16:51 1.9M
20260504T12Z_MSC_GDPS_WindDir_IsbL-0950_LatLon0.15_PT156H.grib2 2026-05-04 16:51 1.9M
20260504T12Z_MSC_GDPS_WindDir_IsbL-0970_LatLon0.15_PT156H.grib2 2026-05-04 16:51 2.0M
20260504T12Z_MSC_GDPS_WindDir_IsbL-0985_LatLon0.15_PT156H.grib2 2026-05-04 16:51 2.0M
20260504T12Z_MSC_GDPS_WindDir_IsbL-1000_LatLon0.15_PT156H.grib2 2026-05-04 16:51 2.0M
20260504T12Z_MSC_GDPS_WindDir_IsbL-1015_LatLon0.15_PT156H.grib2 2026-05-04 16:51 2.0M
20260504T12Z_MSC_GDPS_WindGust-Max_AGL-10m_LatLon0.15_PT156H.grib2 2026-05-04 16:51 2.2M
20260504T12Z_MSC_GDPS_WindGust-Min_AGL-10m_LatLon0.15_PT156H.grib2 2026-05-04 16:51 2.2M
20260504T12Z_MSC_GDPS_WindGust_AGL-10m_LatLon0.15_PT156H.grib2 2026-05-04 16:51 2.2M
20260504T12Z_MSC_GDPS_WindSpeed_AGL-10m_LatLon0.15_PT156H.grib2 2026-05-04 16:51 1.1M
20260504T12Z_MSC_GDPS_WindSpeed_AGL-120m_LatLon0.15_PT156H.grib2 2026-05-04 16:51 1.2M
20260504T12Z_MSC_GDPS_WindSpeed_AGL-40m_LatLon0.15_PT156H.grib2 2026-05-04 16:51 1.2M
20260504T12Z_MSC_GDPS_WindSpeed_AGL-80m_LatLon0.15_PT156H.grib2 2026-05-04 16:51 1.2M
20260504T12Z_MSC_GDPS_WindSpeed_IsbL-0001_LatLon0.15_PT156H.grib2 2026-05-04 16:51 650K
20260504T12Z_MSC_GDPS_WindSpeed_IsbL-0005_LatLon0.15_PT156H.grib2 2026-05-04 16:51 689K
20260504T12Z_MSC_GDPS_WindSpeed_IsbL-0010_LatLon0.15_PT156H.grib2 2026-05-04 16:51 622K
20260504T12Z_MSC_GDPS_WindSpeed_IsbL-0020_LatLon0.15_PT156H.grib2 2026-05-04 16:51 661K
20260504T12Z_MSC_GDPS_WindSpeed_IsbL-0030_LatLon0.15_PT156H.grib2 2026-05-04 16:51 671K
20260504T12Z_MSC_GDPS_WindSpeed_IsbL-0050_LatLon0.15_PT156H.grib2 2026-05-04 16:51 898K
20260504T12Z_MSC_GDPS_WindSpeed_IsbL-0100_LatLon0.15_PT156H.grib2 2026-05-04 16:51 1.1M
20260504T12Z_MSC_GDPS_WindSpeed_IsbL-0150_LatLon0.15_PT156H.grib2 2026-05-04 16:51 1.0M
20260504T12Z_MSC_GDPS_WindSpeed_IsbL-0175_LatLon0.15_PT156H.grib2 2026-05-04 16:51 1.0M
20260504T12Z_MSC_GDPS_WindSpeed_IsbL-0200_LatLon0.15_PT156H.grib2 2026-05-04 16:51 1.1M
20260504T12Z_MSC_GDPS_WindSpeed_IsbL-0225_LatLon0.15_PT156H.grib2 2026-05-04 16:51 1.1M
20260504T12Z_MSC_GDPS_WindSpeed_IsbL-0250_LatLon0.15_PT156H.grib2 2026-05-04 16:51 1.1M
20260504T12Z_MSC_GDPS_WindSpeed_IsbL-0275_LatLon0.15_PT156H.grib2 2026-05-04 16:51 1.1M
20260504T12Z_MSC_GDPS_WindSpeed_IsbL-0300_LatLon0.15_PT156H.grib2 2026-05-04 16:51 1.1M
20260504T12Z_MSC_GDPS_WindSpeed_IsbL-0350_LatLon0.15_PT156H.grib2 2026-05-04 16:51 1.1M
20260504T12Z_MSC_GDPS_WindSpeed_IsbL-0400_LatLon0.15_PT156H.grib2 2026-05-04 16:51 1.1M
20260504T12Z_MSC_GDPS_WindSpeed_IsbL-0450_LatLon0.15_PT156H.grib2 2026-05-04 16:51 1.1M
20260504T12Z_MSC_GDPS_WindSpeed_IsbL-0500_LatLon0.15_PT156H.grib2 2026-05-04 16:51 1.1M
20260504T12Z_MSC_GDPS_WindSpeed_IsbL-0550_LatLon0.15_PT156H.grib2 2026-05-04 16:51 1.1M
20260504T12Z_MSC_GDPS_WindSpeed_IsbL-0600_LatLon0.15_PT156H.grib2 2026-05-04 16:51 1.1M
20260504T12Z_MSC_GDPS_WindSpeed_IsbL-0650_LatLon0.15_PT156H.grib2 2026-05-04 16:51 1.2M
20260504T12Z_MSC_GDPS_WindSpeed_IsbL-0700_LatLon0.15_PT156H.grib2 2026-05-04 16:51 1.5M
20260504T12Z_MSC_GDPS_WindSpeed_IsbL-0750_LatLon0.15_PT156H.grib2 2026-05-04 16:51 1.6M
20260504T12Z_MSC_GDPS_WindSpeed_IsbL-0800_LatLon0.15_PT156H.grib2 2026-05-04 16:51 1.6M
20260504T12Z_MSC_GDPS_WindSpeed_IsbL-0850_LatLon0.15_PT156H.grib2 2026-05-04 16:51 1.7M
20260504T12Z_MSC_GDPS_WindSpeed_IsbL-0875_LatLon0.15_PT156H.grib2 2026-05-04 16:51 1.8M
20260504T12Z_MSC_GDPS_WindSpeed_IsbL-0900_LatLon0.15_PT156H.grib2 2026-05-04 16:51 1.9M
20260504T12Z_MSC_GDPS_WindSpeed_IsbL-0925_LatLon0.15_PT156H.grib2 2026-05-04 16:51 1.9M
20260504T12Z_MSC_GDPS_WindSpeed_IsbL-0950_LatLon0.15_PT156H.grib2 2026-05-04 16:51 1.9M
20260504T12Z_MSC_GDPS_WindSpeed_IsbL-0970_LatLon0.15_PT156H.grib2 2026-05-04 16:51 1.9M
20260504T12Z_MSC_GDPS_WindSpeed_IsbL-0985_LatLon0.15_PT156H.grib2 2026-05-04 16:51 1.9M
20260504T12Z_MSC_GDPS_WindSpeed_IsbL-1000_LatLon0.15_PT156H.grib2 2026-05-04 16:51 1.8M
20260504T12Z_MSC_GDPS_WindSpeed_IsbL-1015_LatLon0.15_PT156H.grib2 2026-05-04 16:51 1.8M
20260504T12Z_MSC_GDPS_WindU_AGL-10m_LatLon0.15_PT156H.grib2 2026-05-04 16:51 1.3M
20260504T12Z_MSC_GDPS_WindU_AGL-120m_LatLon0.15_PT156H.grib2 2026-05-04 16:51 1.0M
20260504T12Z_MSC_GDPS_WindU_AGL-40m_LatLon0.15_PT156H.grib2 2026-05-04 16:51 965K
20260504T12Z_MSC_GDPS_WindU_AGL-80m_LatLon0.15_PT156H.grib2 2026-05-04 16:51 972K
20260504T12Z_MSC_GDPS_WindU_IsbL-0001_LatLon0.15_PT156H.grib2 2026-05-04 16:51 511K
20260504T12Z_MSC_GDPS_WindU_IsbL-0005_LatLon0.15_PT156H.grib2 2026-05-04 16:51 693K
20260504T12Z_MSC_GDPS_WindU_IsbL-0010_LatLon0.15_PT156H.grib2 2026-05-04 16:51 699K
20260504T12Z_MSC_GDPS_WindU_IsbL-0020_LatLon0.15_PT156H.grib2 2026-05-04 16:51 727K
20260504T12Z_MSC_GDPS_WindU_IsbL-0030_LatLon0.15_PT156H.grib2 2026-05-04 16:51 741K
20260504T12Z_MSC_GDPS_WindU_IsbL-0050_LatLon0.15_PT156H.grib2 2026-05-04 16:51 767K
20260504T12Z_MSC_GDPS_WindU_IsbL-0100_LatLon0.15_PT156H.grib2 2026-05-04 16:51 875K
20260504T12Z_MSC_GDPS_WindU_IsbL-0150_LatLon0.15_PT156H.grib2 2026-05-04 16:51 1.0M
20260504T12Z_MSC_GDPS_WindU_IsbL-0175_LatLon0.15_PT156H.grib2 2026-05-04 16:51 823K
20260504T12Z_MSC_GDPS_WindU_IsbL-0200_LatLon0.15_PT156H.grib2 2026-05-04 16:51 854K
20260504T12Z_MSC_GDPS_WindU_IsbL-0225_LatLon0.15_PT156H.grib2 2026-05-04 16:51 861K
20260504T12Z_MSC_GDPS_WindU_IsbL-0250_LatLon0.15_PT156H.grib2 2026-05-04 16:51 859K
20260504T12Z_MSC_GDPS_WindU_IsbL-0275_LatLon0.15_PT156H.grib2 2026-05-04 16:51 883K
20260504T12Z_MSC_GDPS_WindU_IsbL-0300_LatLon0.15_PT156H.grib2 2026-05-04 16:51 873K
20260504T12Z_MSC_GDPS_WindU_IsbL-0350_LatLon0.15_PT156H.grib2 2026-05-04 16:51 890K
20260504T12Z_MSC_GDPS_WindU_IsbL-0400_LatLon0.15_PT156H.grib2 2026-05-04 16:51 1.1M
20260504T12Z_MSC_GDPS_WindU_IsbL-0450_LatLon0.15_PT156H.grib2 2026-05-04 16:51 1.1M
20260504T12Z_MSC_GDPS_WindU_IsbL-0500_LatLon0.15_PT156H.grib2 2026-05-04 16:51 1.1M
20260504T12Z_MSC_GDPS_WindU_IsbL-0550_LatLon0.15_PT156H.grib2 2026-05-04 16:51 1.1M
20260504T12Z_MSC_GDPS_WindU_IsbL-0600_LatLon0.15_PT156H.grib2 2026-05-04 16:51 1.1M
20260504T12Z_MSC_GDPS_WindU_IsbL-0650_LatLon0.15_PT156H.grib2 2026-05-04 16:51 1.2M
20260504T12Z_MSC_GDPS_WindU_IsbL-0700_LatLon0.15_PT156H.grib2 2026-05-04 16:51 1.2M
20260504T12Z_MSC_GDPS_WindU_IsbL-0750_LatLon0.15_PT156H.grib2 2026-05-04 16:51 1.3M
20260504T12Z_MSC_GDPS_WindU_IsbL-0800_LatLon0.15_PT156H.grib2 2026-05-04 16:51 1.3M
20260504T12Z_MSC_GDPS_WindU_IsbL-0850_LatLon0.15_PT156H.grib2 2026-05-04 16:51 1.4M
20260504T12Z_MSC_GDPS_WindU_IsbL-0875_LatLon0.15_PT156H.grib2 2026-05-04 16:51 1.4M
20260504T12Z_MSC_GDPS_WindU_IsbL-0900_LatLon0.15_PT156H.grib2 2026-05-04 16:51 1.5M
20260504T12Z_MSC_GDPS_WindU_IsbL-0925_LatLon0.15_PT156H.grib2 2026-05-04 16:51 1.4M
20260504T12Z_MSC_GDPS_WindU_IsbL-0950_LatLon0.15_PT156H.grib2 2026-05-04 16:51 1.4M
20260504T12Z_MSC_GDPS_WindU_IsbL-0970_LatLon0.15_PT156H.grib2 2026-05-04 16:51 1.4M
20260504T12Z_MSC_GDPS_WindU_IsbL-0985_LatLon0.15_PT156H.grib2 2026-05-04 16:51 1.4M
20260504T12Z_MSC_GDPS_WindU_IsbL-1000_LatLon0.15_PT156H.grib2 2026-05-04 16:51 1.4M
20260504T12Z_MSC_GDPS_WindU_IsbL-1015_LatLon0.15_PT156H.grib2 2026-05-04 16:51 1.3M
20260504T12Z_MSC_GDPS_WindV_AGL-10m_LatLon0.15_PT156H.grib2 2026-05-04 16:51 1.6M
20260504T12Z_MSC_GDPS_WindV_AGL-120m_LatLon0.15_PT156H.grib2 2026-05-04 16:51 972K
20260504T12Z_MSC_GDPS_WindV_AGL-40m_LatLon0.15_PT156H.grib2 2026-05-04 16:51 965K
20260504T12Z_MSC_GDPS_WindV_AGL-80m_LatLon0.15_PT156H.grib2 2026-05-04 16:51 971K
20260504T12Z_MSC_GDPS_WindV_IsbL-0001_LatLon0.15_PT156H.grib2 2026-05-04 16:51 790K
20260504T12Z_MSC_GDPS_WindV_IsbL-0005_LatLon0.15_PT156H.grib2 2026-05-04 16:51 861K
20260504T12Z_MSC_GDPS_WindV_IsbL-0010_LatLon0.15_PT156H.grib2 2026-05-04 16:51 881K
20260504T12Z_MSC_GDPS_WindV_IsbL-0020_LatLon0.15_PT156H.grib2 2026-05-04 16:51 927K
20260504T12Z_MSC_GDPS_WindV_IsbL-0030_LatLon0.15_PT156H.grib2 2026-05-04 16:51 861K
20260504T12Z_MSC_GDPS_WindV_IsbL-0050_LatLon0.15_PT156H.grib2 2026-05-04 16:51 901K
20260504T12Z_MSC_GDPS_WindV_IsbL-0100_LatLon0.15_PT156H.grib2 2026-05-04 16:51 865K
20260504T12Z_MSC_GDPS_WindV_IsbL-0150_LatLon0.15_PT156H.grib2 2026-05-04 16:51 1.0M
20260504T12Z_MSC_GDPS_WindV_IsbL-0175_LatLon0.15_PT156H.grib2 2026-05-04 16:51 821K
20260504T12Z_MSC_GDPS_WindV_IsbL-0200_LatLon0.15_PT156H.grib2 2026-05-04 16:51 851K
20260504T12Z_MSC_GDPS_WindV_IsbL-0225_LatLon0.15_PT156H.grib2 2026-05-04 16:51 915K
20260504T12Z_MSC_GDPS_WindV_IsbL-0250_LatLon0.15_PT156H.grib2 2026-05-04 16:51 913K
20260504T12Z_MSC_GDPS_WindV_IsbL-0275_LatLon0.15_PT156H.grib2 2026-05-04 16:51 934K
20260504T12Z_MSC_GDPS_WindV_IsbL-0300_LatLon0.15_PT156H.grib2 2026-05-04 16:51 924K
20260504T12Z_MSC_GDPS_WindV_IsbL-0350_LatLon0.15_PT156H.grib2 2026-05-04 16:51 937K
20260504T12Z_MSC_GDPS_WindV_IsbL-0400_LatLon0.15_PT156H.grib2 2026-05-04 16:51 938K
20260504T12Z_MSC_GDPS_WindV_IsbL-0450_LatLon0.15_PT156H.grib2 2026-05-04 16:51 880K
20260504T12Z_MSC_GDPS_WindV_IsbL-0500_LatLon0.15_PT156H.grib2 2026-05-04 16:51 887K
20260504T12Z_MSC_GDPS_WindV_IsbL-0550_LatLon0.15_PT156H.grib2 2026-05-04 16:51 1.1M
20260504T12Z_MSC_GDPS_WindV_IsbL-0600_LatLon0.15_PT156H.grib2 2026-05-04 16:51 1.1M
20260504T12Z_MSC_GDPS_WindV_IsbL-0650_LatLon0.15_PT156H.grib2 2026-05-04 16:51 1.2M
20260504T12Z_MSC_GDPS_WindV_IsbL-0700_LatLon0.15_PT156H.grib2 2026-05-04 16:51 1.2M
20260504T12Z_MSC_GDPS_WindV_IsbL-0750_LatLon0.15_PT156H.grib2 2026-05-04 16:51 1.3M
20260504T12Z_MSC_GDPS_WindV_IsbL-0800_LatLon0.15_PT156H.grib2 2026-05-04 16:51 1.3M
20260504T12Z_MSC_GDPS_WindV_IsbL-0850_LatLon0.15_PT156H.grib2 2026-05-04 16:51 1.4M
20260504T12Z_MSC_GDPS_WindV_IsbL-0875_LatLon0.15_PT156H.grib2 2026-05-04 16:51 1.4M
20260504T12Z_MSC_GDPS_WindV_IsbL-0900_LatLon0.15_PT156H.grib2 2026-05-04 16:51 1.4M
20260504T12Z_MSC_GDPS_WindV_IsbL-0925_LatLon0.15_PT156H.grib2 2026-05-04 16:51 1.4M
20260504T12Z_MSC_GDPS_WindV_IsbL-0950_LatLon0.15_PT156H.grib2 2026-05-04 16:51 1.4M
20260504T12Z_MSC_GDPS_WindV_IsbL-0970_LatLon0.15_PT156H.grib2 2026-05-04 16:51 1.4M
20260504T12Z_MSC_GDPS_WindV_IsbL-0985_LatLon0.15_PT156H.grib2 2026-05-04 16:51 1.4M
20260504T12Z_MSC_GDPS_WindV_IsbL-1000_LatLon0.15_PT156H.grib2 2026-05-04 16:51 1.4M
20260504T12Z_MSC_GDPS_WindV_IsbL-1015_LatLon0.15_PT156H.grib2 2026-05-04 16:51 1.3M